Time,TemperatureF,DewpointF,PressureIn,WindDirection,WindDirectionDegrees,WindSpeedMPH,WindSpeedGustMPH,Humidity,HourlyPrecipIn,Conditions,Clouds,dailyrainin,SolarRadiationWatts/m^2,SoftwareType,DateUTC
2013-03-18 00:02:00,28.0,2.0,-100.00,NW,311,33.0,53.0,32,0.00,,,0.00,0.800000,,2013-03-18 08:02:00,
2013-03-18 00:12:00,28.0,2.0,-100.00,NW,311,33.0,53.0,32,0.00,,,0.00,0.800000,,2013-03-18 08:12:00,
2013-03-18 00:22:00,28.0,2.0,-100.00,NW,311,33.0,53.0,32,0.00,,,0.00,0.800000,,2013-03-18 08:22:00,
2013-03-18 00:52:00,28.0,2.0,-100.00,NW,324,17.0,46.0,31,0.00,,,0.00,0.800000,,2013-03-18 08:52:00,
2013-03-18 01:02:00,28.0,2.0,-100.00,NW,324,17.0,46.0,31,0.00,,,0.00,0.800000,,2013-03-18 09:02:00,
2013-03-18 01:12:00,28.0,2.0,-100.00,NW,324,17.0,46.0,31,0.00,,,0.00,0.800000,,2013-03-18 09:12:00,
2013-03-18 01:22:00,28.0,2.0,-100.00,NW,324,17.0,46.0,31,0.00,,,0.00,0.800000,,2013-03-18 09:22:00,
2013-03-18 01:53:00,28.0,5.0,-100.00,SW,230,5.0,31.0,37,0.00,,,0.00,0.800000,,2013-03-18 09:53:00,
2013-03-18 02:03:00,28.0,5.0,-100.00,SW,230,5.0,31.0,37,0.00,,,0.00,0.800000,,2013-03-18 10:03:00,
2013-03-18 02:12:00,28.0,5.0,-100.00,SW,230,5.0,31.0,37,0.00,,,0.00,0.800000,,2013-03-18 10:12:00,
2013-03-18 02:23:00,28.0,5.0,-100.00,SW,230,5.0,31.0,37,0.00,,,0.00,0.800000,,2013-03-18 10:23:00,
2013-03-18 02:53:00,28.0,4.0,-100.00,NNW,338,7.0,24.0,36,0.00,,,0.00,0.800000,,2013-03-18 10:53:00,
2013-03-18 03:03:00,28.0,4.0,-100.00,NNW,338,7.0,24.0,36,0.00,,,0.00,0.800000,,2013-03-18 11:03:00,
2013-03-18 03:12:00,28.0,4.0,-100.00,NNW,338,7.0,24.0,36,0.00,,,0.00,0.800000,,2013-03-18 11:12:00,
2013-03-18 03:22:00,28.0,4.0,-100.00,NNW,338,7.0,24.0,36,0.00,,,0.00,0.800000,,2013-03-18 11:22:00,
2013-03-18 03:52:00,27.0,6.0,-100.00,SSW,193,7.0,22.0,40,0.00,,,0.00,0.800000,,2013-03-18 11:52:00,
2013-03-18 04:02:00,27.0,6.0,-100.00,SSW,193,7.0,22.0,40,0.00,,,0.00,0.800000,,2013-03-18 12:02:00,
2013-03-18 04:12:00,27.0,6.0,-100.00,SSW,193,7.0,22.0,40,0.00,,,0.00,0.800000,,2013-03-18 12:12:00,
2013-03-18 04:21:00,27.0,6.0,-100.00,SSW,193,7.0,22.0,40,0.00,,,0.00,0.800000,,2013-03-18 12:21:00,
2013-03-18 04:52:00,26.0,4.0,-100.00,NNE,22,5.0,15.0,38,0.00,,,0.00,0.800000,,2013-03-18 12:52:00,
2013-03-18 05:02:00,26.0,4.0,-100.00,NNE,22,5.0,15.0,38,0.00,,,0.00,0.800000,,2013-03-18 13:02:00,
2013-03-18 05:12:00,26.0,4.0,-100.00,NNE,22,5.0,15.0,38,0.00,,,0.00,0.800000,,2013-03-18 13:12:00,
2013-03-18 05:22:00,26.0,4.0,-100.00,NNE,22,5.0,15.0,38,0.00,,,0.00,0.800000,,2013-03-18 13:22:00,
2013-03-18 05:52:00,26.0,4.0,-100.00,North,6,8.0,17.0,39,0.00,,,0.00,0.800000,,2013-03-18 13:52:00,
2013-03-18 06:02:00,26.0,4.0,-100.00,North,6,8.0,17.0,39,0.00,,,0.00,0.800000,,2013-03-18 14:02:00,
2013-03-18 06:12:00,26.0,4.0,-100.00,North,6,8.0,17.0,39,0.00,,,0.00,0.800000,,2013-03-18 14:12:00,
2013-03-18 06:22:00,26.0,4.0,-100.00,North,6,8.0,17.0,39,0.00,,,0.00,0.800000,,2013-03-18 14:22:00,
2013-03-18 06:52:00,27.0,4.0,-100.00,NE,37,6.0,16.0,36,0.00,,,0.00,0.800000,,2013-03-18 14:52:00,
2013-03-18 07:52:00,26.0,8.0,-100.00,South,180,8.0,22.0,47,0.00,,,0.00,0.800000,,2013-03-18 15:52:00,
2013-03-18 08:02:00,26.0,8.0,-100.00,South,180,8.0,22.0,47,0.00,,,0.00,0.800000,,2013-03-18 16:02:00,
2013-03-18 08:12:00,26.0,8.0,-100.00,South,180,8.0,22.0,47,0.00,,,0.00,0.800000,,2013-03-18 16:12:00,
2013-03-18 08:22:00,26.0,8.0,-100.00,South,180,8.0,22.0,47,0.00,,,0.00,0.800000,,2013-03-18 16:22:00,
2013-03-18 08:52:00,26.0,3.0,-100.00,WNW,298,14.0,16.0,36,0.00,,,0.00,5.400000,,2013-03-18 16:52:00,
2013-03-18 09:52:00,28.0,1.0,-100.00,WNW,292,7.0,29.0,31,-99.99,,,0.00,89.900002,,2013-03-18 17:52:00,
2013-03-18 10:52:00,29.0,1.0,-100.00,North,350,6.0,23.0,29,0.00,,,0.00,247.300003,,2013-03-18 18:52:00,
2013-03-18 11:12:00,29.0,1.0,-100.00,North,350,6.0,23.0,29,0.00,,,0.00,247.300003,,2013-03-18 19:12:00,
2013-03-18 11:22:00,29.0,1.0,-100.00,North,350,6.0,23.0,29,0.00,,,0.00,247.300003,,2013-03-18 19:22:00,
2013-03-18 11:52:00,31.0,3.0,-100.00,NE,53,4.0,16.0,29,0.00,,,0.00,376.399994,,2013-03-18 19:52:00,
2013-03-18 12:02:00,31.0,3.0,-100.00,NE,53,4.0,16.0,29,0.00,,,0.00,376.399994,,2013-03-18 20:02:00,
2013-03-18 12:12:00,31.0,3.0,-100.00,NE,53,4.0,16.0,29,0.00,,,0.00,376.399994,,2013-03-18 20:12:00,
2013-03-18 12:22:00,31.0,3.0,-100.00,NE,53,4.0,16.0,29,0.00,,,0.00,376.399994,,2013-03-18 20:22:00,
2013-03-18 12:52:00,33.0,5.0,-100.00,SW,222,5.0,19.0,31,0.00,,,0.00,475.200012,,2013-03-18 20:52:00,
2013-03-18 13:02:00,33.0,5.0,-100.00,SW,222,5.0,19.0,31,0.00,,,0.00,475.200012,,2013-03-18 21:02:00,
2013-03-18 13:11:00,33.0,5.0,-100.00,SW,222,5.0,19.0,31,0.00,,,0.00,475.200012,,2013-03-18 21:11:00,
2013-03-18 13:22:00,33.0,5.0,-100.00,SW,222,5.0,19.0,31,0.00,,,0.00,475.200012,,2013-03-18 21:22:00,
2013-03-18 13:53:00,36.0,10.0,-100.00,South,183,3.0,11.0,33,0.00,,,0.00,535.500000,,2013-03-18 21:53:00,
2013-03-18 14:03:00,36.0,10.0,-100.00,South,183,3.0,11.0,33,0.00,,,0.00,535.500000,,2013-03-18 22:03:00,
2013-03-18 14:52:00,31.0,9.0,-100.00,ENE,68,12.0,12.0,38,0.00,,,0.00,556.200012,,2013-03-18 22:52:00,
2013-03-18 15:02:00,31.0,9.0,-100.00,ENE,68,12.0,12.0,38,0.00,,,0.00,556.200012,,2013-03-18 23:02:00,
2013-03-18 15:12:00,31.0,9.0,-100.00,ENE,68,12.0,12.0,38,0.00,,,0.00,556.200012,,2013-03-18 23:12:00,
2013-03-18 15:22:00,31.0,9.0,-100.00,ENE,68,12.0,12.0,38,0.00,,,0.00,556.200012,,2013-03-18 23:22:00,
2013-03-18 15:53:00,36.0,9.0,-100.00,SE,133,4.0,23.0,32,0.00,,,0.00,531.700012,,2013-03-18 23:53:00,
2013-03-18 16:02:00,36.0,9.0,-100.00,SE,133,4.0,23.0,32,0.00,,,0.00,531.700012,,2013-03-19 00:02:00,
2013-03-18 16:12:00,36.0,9.0,-100.00,SE,133,4.0,23.0,32,0.00,,,0.00,531.700012,,2013-03-19 00:12:00,
2013-03-18 16:22:00,36.0,9.0,-100.00,SE,133,4.0,23.0,32,0.00,,,0.00,531.700012,,2013-03-19 00:22:00,
2013-03-18 16:52:00,34.0,10.0,-100.00,SW,220,5.0,13.0,35,0.00,,,0.00,463.600006,,2013-03-19 00:52:00,
2013-03-18 17:02:00,34.0,10.0,-100.00,SW,220,5.0,13.0,35,0.00,,,0.00,463.600006,,2013-03-19 01:02:00,
2013-03-18 17:11:00,34.0,10.0,-100.00,SW,220,5.0,13.0,35,0.00,,,0.00,463.600006,,2013-03-19 01:11:00,
2013-03-18 17:21:00,34.0,10.0,-100.00,SW,220,5.0,13.0,35,0.00,,,0.00,463.600006,,2013-03-19 01:21:00,
2013-03-18 17:52:00,33.0,7.0,-100.00,South,181,6.0,9.0,34,0.00,,,0.00,355.500000,,2013-03-19 01:52:00,
2013-03-18 18:02:00,33.0,7.0,-100.00,South,181,6.0,9.0,34,0.00,,,0.00,355.500000,,2013-03-19 02:02:00,
2013-03-18 18:12:00,33.0,7.0,-100.00,South,181,6.0,9.0,34,0.00,,,0.00,355.500000,,2013-03-19 02:12:00,
2013-03-18 18:22:00,33.0,7.0,-100.00,South,181,6.0,9.0,34,0.00,,,0.00,355.500000,,2013-03-19 02:22:00,
2013-03-18 18:52:00,31.0,4.0,-100.00,SE,135,6.0,8.0,30,0.00,,,0.00,232.500000,,2013-03-19 02:52:00,
2013-03-18 19:02:00,31.0,4.0,-100.00,SE,135,6.0,8.0,30,0.00,,,0.00,232.500000,,2013-03-19 03:02:00,
2013-03-18 19:12:00,31.0,4.0,-100.00,SE,135,6.0,8.0,30,0.00,,,0.00,232.500000,,2013-03-19 03:12:00,
2013-03-18 19:22:00,31.0,4.0,-100.00,SE,135,6.0,8.0,30,0.00,,,0.00,232.500000,,2013-03-19 03:22:00,
2013-03-18 19:53:00,29.0,3.0,-100.00,SE,143,2.0,9.0,31,0.00,,,0.00,84.699997,,2013-03-19 03:53:00,
2013-03-18 20:03:00,29.0,3.0,-100.00,SE,143,2.0,9.0,31,0.00,,,0.00,84.699997,,2013-03-19 04:03:00,
2013-03-18 20:13:00,29.0,3.0,-100.00,SE,143,2.0,9.0,31,0.00,,,0.00,84.699997,,2013-03-19 04:13:00,
2013-03-18 20:22:00,29.0,3.0,-100.00,SE,143,2.0,9.0,31,0.00,,,0.00,84.699997,,2013-03-19 04:22:00,
2013-03-18 20:52:00,28.0,0.0,-100.00,NNW,343,7.0,11.0,30,0.00,,,0.00,13.800000,,2013-03-19 04:52:00,
2013-03-18 21:02:00,28.0,0.0,-100.00,NNW,343,7.0,11.0,30,0.00,,,0.00,13.800000,,2013-03-19 05:02:00,
2013-03-18 21:11:00,28.0,0.0,-100.00,NNW,343,7.0,11.0,30,0.00,,,0.00,13.800000,,2013-03-19 05:11:00,
2013-03-18 21:22:00,28.0,0.0,-100.00,NNW,343,7.0,11.0,30,0.00,,,0.00,13.800000,,2013-03-19 05:22:00,
2013-03-18 21:52:00,28.0,4.0,-100.00,South,179,6.0,18.0,35,0.00,,,0.00,0.900000,,2013-03-19 05:52:00,
2013-03-18 22:02:00,28.0,4.0,-100.00,South,179,6.0,18.0,35,0.00,,,0.00,0.900000,,2013-03-19 06:02:00,
2013-03-18 22:12:00,28.0,4.0,-100.00,South,179,6.0,18.0,35,0.00,,,0.00,0.900000,,2013-03-19 06:12:00,
2013-03-18 22:22:00,28.0,4.0,-100.00,South,179,6.0,18.0,35,0.00,,,0.00,0.900000,,2013-03-19 06:22:00,
2013-03-18 22:52:00,27.0,2.0,-100.00,NE,41,10.0,17.0,33,0.00,,,0.00,0.800000,,2013-03-19 06:52:00,
2013-03-18 23:02:00,27.0,2.0,-100.00,NE,41,10.0,17.0,33,0.00,,,0.00,0.800000,,2013-03-19 07:02:00,
2013-03-18 23:12:00,27.0,2.0,-100.00,NE,41,10.0,17.0,33,0.00,,,0.00,0.800000,,2013-03-19 07:12:00,
2013-03-18 23:21:00,27.0,2.0,-100.00,NE,41,10.0,17.0,33,0.00,,,0.00,0.800000,,2013-03-19 07:21:00,
2013-03-18 23:52:00,27.0,1.0,-100.00,West,271,4.0,20.0,33,0.00,,,0.00,0.800000,,2013-03-19 07:52:00,